Location: Cajon Junction
(34.3117°N, 117.4748°W)
Time: 04:40:03
(UTC+00:00)

COSMO-SKYMED 1 - Pass Details

Date: 18 April 2024
Orbit: 621 x 623 km, 97.9° (Epoch: 28 May)

Event Time Altitude Azimuth Distance (km) Brightness Sun altitude
Rises 12:36:44 0° 148° (SSE) 2,890 6.2 -8.2°
Reaches altitude 10° 12:39:01 10° 140° (SE) 1,988 5.4 -7.8°
Maximum altitude 12:43:01 37° 73° (ENE) 966 4.4 -7.0°
Drops below altitude 10° 12:47:02 10° 6° (N) 2,000 5.5 -6.2°
Sets 12:49:20 0° 358° (N) 2,911 6.2 -5.8°
